Location: Carrières
(48.9495°N, 2.0407°E)
Time: 11:21:49
(UTC+00:00)

Cosmos 1606 Rocket - Visible Passes

Search period start: 18 June 2024 00:00
Search period end: 28 June 2024 00:00
Orbit: 601 x 627 km, 82.5° (Epoch: 18 June)

Date Brightness Start Highest point End Pass type
(mag) Time Alt. Az. Time Alt. Az. Time Alt. Az.
18 Jun 4.6 01:27:27 10° N 01:31:43 43° ENE 01:35:56 10° SSE visible
19 Jun 3.7 01:43:04 10° N 01:47:32 74° E 01:51:46 11° SSE visible
20 Jun 6.1 00:22:15 10° NNE 00:24:59 16° ENE 00:27:42 10° ESE visible
20 Jun 3.6 01:58:51 10° NNW 02:03:15 66° W 02:07:00 14° S visible
21 Jun 5.5 00:37:19 10° NNE 00:41:00 25° ENE 00:44:37 10° SE visible
21 Jun 4.2 02:14:47 10° NNW 02:18:53 38° W 02:22:16 14° SSW visible
22 Jun 4.7 00:52:43 10° N 00:56:55 39° ENE 01:00:32 13° SE visible
22 Jun 5.0 02:30:57 10° NW 02:34:27 23° W 02:37:33 12° SW visible
23 Jun 3.8 01:08:18 10° N 01:12:44 67° ENE 01:15:50 19° SSE visible
23 Jun 5.5 02:47:34 10° NW 02:49:54 14° W 02:52:14 10° WSW visible
23 Jun 6.1 23:47:40 10° NNE 23:50:08 15° ENE 23:52:35 10° E visible
24 Jun 3.5 01:24:02 10° NNW 01:28:28 72° W 01:31:11 22° S visible
25 Jun 5.5 00:02:38 10° NNE 00:06:08 23° ENE 00:09:31 10° ESE visible
25 Jun 4.1 01:39:56 10° NNW 01:44:06 42° W 01:46:33 21° SSW visible
26 Jun 4.8 00:17:58 10° N 00:22:04 36° ENE 00:24:54 17° SE visible
26 Jun 4.9 01:56:03 10° NNW 01:59:40 25° W 02:01:55 17° SW visible
27 Jun 3.9 00:33:30 10° N 00:37:54 61° ENE 00:40:17 25° SSE visible
27 Jun 5.5 02:12:33 10° NW 02:15:08 15° W 02:17:19 11° WSW visible
27 Jun 6.0 23:13:05 10° NNE 23:15:15 13° ENE 23:17:23 10° E visible
